Fort Hood, TX

11:15 PM CST on December 09, 2019 (GMT -0600)
Killeen-Fort Hood Regional

Weather History for KGRK - September, 2019

Change the Weather History Date:

Sunday, September 15, 2019

  Actual Average Record
Temperature  
Mean Temperature 82 °F -  
Max Temperature 93 °F 87 °F 100 °F (1997)
Min Temperature 71 °F 67 °F 60 °F (2003)
Cooling Degree Days 16    
Growing Degree Days 32 (Base 50)    
Moisture  
Dew Point 63 °F    
Average Humidity 54    
Maximum Humidity 83    
Minimum Humidity 33    
Precipitation  
Precipitation 0.00 in - - ()
Sea Level Pressure  
Sea Level Pressure 30.02 in    
Wind  
Wind Speed 3 mph (ENE)    
Max Wind Speed 13 mph    
Max Gust Speed -    
Visibility 9 miles    
Events      
Averages and records for this station are not official NWS values.
T = Trace of Precipitation, MM = Missing Value Source: NWS Daily Summary

Daily Weather History Graph

Daily Weather History Graph

Search for Another Location

Airport or City:

Astronomy

Sep. 15, 2019 Rise Set
Actual Time 7:15 AM CDT 7:37 PM CDT
Civil Twilight 6:51 AM CDT 8:01 PM CDT
Nautical Twilight 6:22 AM CDT 8:29 PM CDT
Astronomical Twilight 5:54 AM CDT 8:58 PM CDT
Moon 8:49 PM CDT (9/15) 8:25 AM CDT (9/15)
Length of Visible Light 13h 10m
Length of Day
12h 21m
Full, 98% of the Moon is Illuminated
Sep 15
Full
Sep 21
Last Quarter
Sep 28
New
Oct 5
First Quarter
Oct 13
Full

Hourly Weather History & Observations

Time (CDT) Temp. Heat Index Dew Point Humidity Pressure Visibility Wind Dir Wind Speed Gust Speed Precip Events Conditions
12:58 AM 79.5 °F - 60.6 °F 52% 30.06 in 9.0 mi Calm Calm - N/A   Clear
1:58 AM 76.6 °F - 62.6 °F 62% 30.06 in 7.0 mi Calm Calm - N/A   Clear
2:58 AM 78.4 °F - 63.9 °F 61% 30.05 in 7.0 mi WSW 3.5 mph - N/A   Clear
3:58 AM 77.0 °F - 64.4 °F 65% 30.04 in 7.0 mi Calm Calm - N/A   Clear
4:58 AM 76.1 °F - 64.6 °F 67% 30.04 in 7.0 mi Calm Calm - N/A   Clear
5:58 AM 73.4 °F - 66.2 °F 78% 30.05 in 7.0 mi WNW 4.6 mph - N/A   Clear
6:58 AM 72.0 °F - 65.3 °F 79% 30.05 in 7.0 mi NNW 3.5 mph - N/A   Clear
7:03 AM 71.6 °F - 64.4 °F 78% 30.06 in 1.0 mi NNW 4.6 mph - N/A   Haze
7:08 AM 71.6 °F - 64.4 °F 78% 30.06 in 7.0 mi NNW 4.6 mph - N/A   Haze
7:58 AM 71.8 °F - 66.2 °F 83% 30.06 in 7.0 mi North 4.6 mph - N/A   Clear
8:58 AM 77.9 °F - 65.5 °F 65% 30.06 in 7.0 mi North 3.5 mph - N/A   Clear
9:58 AM 82.4 °F 84.1 °F 64.6 °F 55% 30.08 in 10.0 mi Calm Calm - N/A   Clear
10:58 AM 85.3 °F 85.9 °F 62.6 °F 46% 30.08 in 10.0 mi East 3.5 mph - N/A   Clear
11:58 AM 87.6 °F 88.5 °F 63.0 °F 44% 30.07 in 10.0 mi ESE 10.4 mph - N/A   Clear
12:58 PM 89.4 °F 90.2 °F 63.0 °F 41% 30.05 in 10.0 mi ESE 12.7 mph - N/A   Clear
1:58 PM 90.1 °F 90.9 °F 62.6 °F 40% 30.03 in 10.0 mi East 9.2 mph - N/A   Clear
2:58 PM 91.9 °F 92.2 °F 61.3 °F 36% 29.99 in 10.0 mi East 8.1 mph - N/A   Partly Cloudy
3:58 PM 92.7 °F 92.9 °F 61.5 °F 35% 29.98 in 10.0 mi NNE 6.9 mph - N/A   Mostly Cloudy
4:58 PM 92.1 °F 91.4 °F 59.5 °F 33% 29.96 in 10.0 mi ESE 8.1 mph - N/A   Scattered Clouds
5:58 PM 92.3 °F 92.3 °F 60.6 °F 35% 29.96 in 10.0 mi East 9.2 mph - N/A   Clear
6:58 PM 90.5 °F 90.1 °F 59.9 °F 36% 29.96 in 10.0 mi ESE 6.9 mph - N/A   Mostly Cloudy
7:58 PM 87.3 °F 87.2 °F 60.6 °F 41% 29.96 in 10.0 mi ESE 4.6 mph - N/A   Clear
8:58 PM 85.3 °F 85.4 °F 61.0 °F 44% 29.97 in 10.0 mi Calm Calm - N/A   Clear
9:58 PM 83.8 °F 84.3 °F 61.7 °F 47% 29.99 in 10.0 mi Calm Calm - N/A   Clear
10:58 PM 83.1 °F 83.9 °F 61.9 °F 49% 29.99 in 10.0 mi Calm Calm - N/A   Clear
11:58 PM 81.7 °F 82.9 °F 62.8 °F 53% 29.99 in 10.0 mi Calm Calm - N/A   Clear